Tracking 18673 objects as of 26-June-2017
HD Live streaming from Space Station
objects crossing your sky now

COSMOS 2286

Track COSMOS 2286 now!
COSMOS 2286 is classified as:


NORAD ID: 23194
Int'l Code: 1994-048A
Perigee: 3,756.7 km
Apogee: 36,644.6 km
Inclination: 67.7 °
Period: 718.4 minutes
Semi major axis: 26571 km
RCS: 14.1879 m2 (large)
Launch date: August 5, 1994
Source: Commonwealth of Independent States (former USSR) (CIS)
Launch site: PLESETSK MISSILE AND SPACE COMPLEX (PKMTR)
Your satellite tracking list
Your tracking list is empty





NASA's NSSDC Master Catalog

Two Line Element Set (TLE):
1 23194U 94048A   17176.16212917 -.00000743 +00000-0 +00000-0 0  9990
2 23194 067.7333 010.2308 6188522 181.0266 176.6752 02.00435243167708
Source of the keplerian elements: AFSPC